Year,Month,Day,Hour,Minute,Value (Times are PST for temperature in C)
2016,06,18,14,02,15.90
2016,06,18,14,03,16.00
2016,06,18,14,04,16.10
2016,06,18,14,05,16.10
2016,06,18,14,06,16.10
2016,06,18,14,07,16.10
2016,06,18,14,08,16.20
2016,06,18,14,09,16.30
2016,06,18,14,10,16.30
2016,06,18,14,11,16.30
2016,06,18,14,12,16.30
2016,06,18,14,13,16.30
2016,06,18,14,14,16.20
2016,06,18,14,15,16.20
2016,06,18,14,16,16.30
2016,06,18,14,17,16.30
2016,06,18,14,18,16.30
2016,06,18,14,19,16.30
2016,06,18,14,20,16.30
2016,06,18,14,21,16.30
2016,06,18,14,22,16.30
2016,06,18,14,23,16.30
2016,06,18,14,24,16.30
2016,06,18,14,25,16.30
2016,06,18,14,26,16.30
2016,06,18,14,27,16.40
2016,06,18,14,28,16.40
2016,06,18,14,29,16.40
2016,06,18,14,30,16.40
2016,06,18,14,31,16.30
2016,06,18,14,32,16.30
2016,06,18,14,33,16.30
2016,06,18,14,34,16.30
2016,06,18,14,35,16.30
2016,06,18,14,36,16.30
2016,06,18,14,37,16.30
2016,06,18,14,38,16.20
2016,06,18,14,39,16.20
2016,06,18,14,40,16.20
2016,06,18,14,41,16.20
2016,06,18,14,42,16.20
2016,06,18,14,43,16.10
2016,06,18,14,44,16.10
2016,06,18,14,45,16.00
2016,06,18,14,46,15.90
2016,06,18,14,47,15.80
2016,06,18,14,48,15.80
2016,06,18,14,49,15.80
2016,06,18,14,50,15.90
2016,06,18,14,51,15.90
2016,06,18,14,52,15.90
2016,06,18,14,53,16.00
2016,06,18,14,54,16.10
2016,06,18,14,55,16.10
2016,06,18,14,56,16.10
2016,06,18,14,57,16.10
2016,06,18,14,58,16.10
2016,06,18,14,59,16.10
2016,06,18,15,00,16.10
2016,06,18,15,01,16.10
2016,06,18,15,02,16.10
2016,06,18,15,03,16.10
2016,06,18,15,04,16.10
2016,06,18,15,05,16.10
2016,06,18,15,06,16.10
2016,06,18,15,07,16.10
2016,06,18,15,08,16.10
2016,06,18,15,09,16.10
2016,06,18,15,10,16.10
2016,06,18,15,11,16.10
2016,06,18,15,12,16.10
2016,06,18,15,13,16.20
2016,06,18,15,14,16.20
2016,06,18,15,15,16.20
2016,06,18,15,16,16.20
2016,06,18,15,17,16.30
2016,06,18,15,18,16.20
2016,06,18,15,19,16.20
2016,06,18,15,20,16.20
2016,06,18,15,21,16.20
2016,06,18,15,22,16.20
2016,06,18,15,23,16.10
2016,06,18,15,24,16.10
2016,06,18,15,25,16.10
2016,06,18,15,26,16.10
2016,06,18,15,27,16.10
2016,06,18,15,28,16.10
2016,06,18,15,29,16.10
2016,06,18,15,30,16.10
2016,06,18,15,31,16.10
2016,06,18,15,32,16.10
2016,06,18,15,33,16.10
2016,06,18,15,34,16.10
2016,06,18,15,35,16.10
2016,06,18,15,36,16.10
2016,06,18,15,37,16.10
2016,06,18,15,38,16.10
2016,06,18,15,39,16.10
2016,06,18,15,40,16.10
2016,06,18,15,41,16.10
2016,06,18,15,42,16.10
2016,06,18,15,43,16.10
2016,06,18,15,44,16.10
2016,06,18,15,45,16.10
2016,06,18,15,46,16.00
2016,06,18,15,47,15.90
2016,06,18,15,48,15.80
2016,06,18,15,49,15.80
2016,06,18,15,50,15.80
2016,06,18,15,51,15.70
2016,06,18,15,52,15.60
2016,06,18,15,53,15.60
2016,06,18,15,54,15.60
2016,06,18,15,55,15.60
2016,06,18,15,56,15.60
2016,06,18,15,57,15.60
2016,06,18,15,58,15.60
2016,06,18,15,59,15.70
2016,06,18,16,00,15.70
2016,06,18,16,01,15.80
2016,06,18,16,02,15.80
2016,06,18,16,03,15.80
2016,06,18,16,04,15.80
2016,06,18,16,05,15.80
2016,06,18,16,06,15.80
2016,06,18,16,07,15.80
2016,06,18,16,08,15.80
2016,06,18,16,09,15.90
2016,06,18,16,10,16.00
2016,06,18,16,11,16.10
2016,06,18,16,12,16.10
2016,06,18,16,13,16.10
2016,06,18,16,14,16.10
2016,06,18,16,15,16.10
2016,06,18,16,16,16.10
2016,06,18,16,17,16.10
2016,06,18,16,18,16.10
2016,06,18,16,19,16.10
2016,06,18,16,20,16.10
2016,06,18,16,21,16.10
2016,06,18,16,22,16.10
2016,06,18,16,23,16.00
2016,06,18,16,24,15.90
2016,06,18,16,25,15.90
2016,06,18,16,26,15.80
2016,06,18,16,27,15.80
2016,06,18,16,28,15.80
2016,06,18,16,29,15.80
2016,06,18,16,30,15.80
2016,06,18,16,31,15.80
2016,06,18,16,32,15.80
2016,06,18,16,33,15.80
2016,06,18,16,34,15.70
2016,06,18,16,35,15.70
2016,06,18,16,36,15.80
2016,06,18,16,37,15.80
2016,06,18,16,38,15.80
2016,06,18,16,39,15.80
2016,06,18,16,40,15.80
2016,06,18,16,41,15.90
2016,06,18,16,42,15.90
2016,06,18,16,43,16.00
2016,06,18,16,44,16.10
2016,06,18,16,45,16.10
2016,06,18,16,46,16.10
2016,06,18,16,47,16.10
2016,06,18,16,48,16.10
2016,06,18,16,49,16.20
2016,06,18,16,50,16.20
2016,06,18,16,51,16.30
2016,06,18,16,52,16.30
2016,06,18,16,53,16.40
2016,06,18,16,54,16.40
2016,06,18,16,55,16.40
2016,06,18,16,56,16.30
2016,06,18,16,57,16.30
2016,06,18,16,58,16.30
2016,06,18,16,59,16.30
2016,06,18,17,00,16.30
2016,06,18,17,01,16.30
2016,06,18,17,02,16.30
2016,06,18,17,03,16.30
2016,06,18,17,04,16.30
2016,06,18,17,05,16.30
2016,06,18,17,06,16.30
2016,06,18,17,07,16.30
2016,06,18,17,08,16.30
2016,06,18,17,09,16.30
2016,06,18,17,10,16.20
2016,06,18,17,11,16.20
2016,06,18,17,12,16.20
2016,06,18,17,13,16.10
2016,06,18,17,14,16.10
2016,06,18,17,15,16.10
2016,06,18,17,16,16.10
2016,06,18,17,17,16.10
2016,06,18,17,18,16.10
2016,06,18,17,19,16.10
2016,06,18,17,20,16.10
2016,06,18,17,21,16.00
2016,06,18,17,22,15.90
2016,06,18,17,23,15.90
2016,06,18,17,24,15.90
2016,06,18,17,25,15.90
2016,06,18,17,26,16.00
2016,06,18,17,27,16.10
2016,06,18,17,28,16.00
2016,06,18,17,29,15.90
2016,06,18,17,30,15.90
2016,06,18,17,31,15.90
2016,06,18,17,32,15.90
2016,06,18,17,33,15.90
2016,06,18,17,34,15.90
2016,06,18,17,35,15.90
2016,06,18,17,36,15.90
2016,06,18,17,37,15.90
2016,06,18,17,38,15.90
2016,06,18,17,39,15.90
2016,06,18,17,40,15.80
2016,06,18,17,41,15.80
2016,06,18,17,42,15.90
2016,06,18,17,43,15.90
2016,06,18,17,44,15.90
2016,06,18,17,45,15.90
2016,06,18,17,46,15.90
2016,06,18,17,47,15.80
2016,06,18,17,48,15.80
2016,06,18,17,49,15.80
2016,06,18,17,50,15.80
2016,06,18,17,51,15.80
2016,06,18,17,52,15.80
2016,06,18,17,53,15.70
2016,06,18,17,54,15.70
2016,06,18,17,55,15.70
2016,06,18,17,56,15.80
2016,06,18,17,57,15.80
2016,06,18,17,58,15.80
2016,06,18,17,59,15.80
2016,06,18,18,00,15.80
2016,06,18,18,01,15.80
2016,06,18,18,02,15.70
2016,06,18,18,03,15.60
2016,06,18,18,04,15.60
2016,06,18,18,05,15.60
2016,06,18,18,06,15.60
2016,06,18,18,07,15.50
2016,06,18,18,08,15.50
2016,06,18,18,09,15.50
2016,06,18,18,10,15.40
2016,06,18,18,11,15.40
2016,06,18,18,12,15.40
2016,06,18,18,13,15.30
2016,06,18,18,14,15.30
2016,06,18,18,15,15.30
2016,06,18,18,16,15.30
2016,06,18,18,17,15.30
2016,06,18,18,18,15.30
2016,06,18,18,19,15.30
2016,06,18,18,20,15.30
2016,06,18,18,21,15.30
2016,06,18,18,22,15.30
2016,06,18,18,23,15.30
2016,06,18,18,24,15.30
2016,06,18,18,25,15.30
2016,06,18,18,26,15.30
2016,06,18,18,27,15.30
2016,06,18,18,28,15.20
2016,06,18,18,29,15.20
2016,06,18,18,30,15.20
2016,06,18,18,31,15.20
2016,06,18,18,32,15.30
2016,06,18,18,33,15.30
2016,06,18,18,34,15.30
2016,06,18,18,35,15.30
2016,06,18,18,36,15.30
2016,06,18,18,37,15.30
2016,06,18,18,38,15.40
2016,06,18,18,39,15.40
2016,06,18,18,40,15.40
2016,06,18,18,41,15.30
2016,06,18,18,42,15.30
2016,06,18,18,43,15.40
2016,06,18,18,44,15.30
2016,06,18,18,45,15.30
2016,06,18,18,46,15.30
2016,06,18,18,47,15.30
2016,06,18,18,48,15.30
2016,06,18,18,49,15.30
2016,06,18,18,50,15.30
2016,06,18,18,51,15.30
2016,06,18,18,52,15.30
2016,06,18,18,53,15.30
2016,06,18,18,54,15.40
2016,06,18,18,55,15.40
2016,06,18,18,56,15.40
2016,06,18,18,57,15.40
2016,06,18,18,58,15.40
2016,06,18,18,59,15.50
2016,06,18,19,00,15.50
2016,06,18,19,01,15.50
2016,06,18,19,02,15.40
2016,06,18,19,03,15.30
2016,06,18,19,04,15.30
2016,06,18,19,05,15.30
2016,06,18,19,06,15.30
2016,06,18,19,07,15.30
2016,06,18,19,08,15.20
2016,06,18,19,09,15.20
2016,06,18,19,10,15.20
2016,06,18,19,11,15.10
2016,06,18,19,12,15.10
2016,06,18,19,13,15.00
2016,06,18,19,14,14.90
2016,06,18,19,15,14.90
2016,06,18,19,16,14.80
2016,06,18,19,17,14.80
2016,06,18,19,18,14.80
2016,06,18,19,19,14.80
2016,06,18,19,20,14.80
2016,06,18,19,21,14.80
2016,06,18,19,22,14.80
2016,06,18,19,23,14.80
2016,06,18,19,24,14.80
2016,06,18,19,25,14.80
2016,06,18,19,26,14.70
2016,06,18,19,27,14.70
2016,06,18,19,28,14.70
2016,06,18,19,29,14.60
2016,06,18,19,30,14.60
2016,06,18,19,31,14.60
2016,06,18,19,32,14.60
2016,06,18,19,33,14.50
2016,06,18,19,34,14.50
2016,06,18,19,35,14.50
2016,06,18,19,36,14.50
2016,06,18,19,37,14.50
2016,06,18,19,38,14.50
2016,06,18,19,39,14.50
2016,06,18,19,40,14.50
2016,06,18,19,41,14.50
2016,06,18,19,42,14.50
2016,06,18,19,43,14.50
2016,06,18,19,44,14.50
2016,06,18,19,45,14.50
2016,06,18,19,46,14.50
2016,06,18,19,47,14.50
2016,06,18,19,48,14.50
2016,06,18,19,49,14.50
2016,06,18,19,50,14.50
2016,06,18,19,51,14.50
2016,06,18,19,52,14.50
2016,06,18,19,53,14.50
